Location: *
(50.8160°S, 176.0219°W)
Time: 23:12:38
(UTC+00:00)

USA 229 - Pass Details

Date: 19 May 2026
Orbit: 843 x 1365 km, 63.4° (Epoch: 10 January)

Event Time Altitude Azimuth Distance (km) Brightness Sun altitude
Exits shadow 18:30:11 - 237° (WSW) 2,905 5.3 -7.8°
Reaches altitude 10° 18:30:35 10° 238° (WSW) 2,778 5.2 -7.8°
Maximum altitude 18:35:48 27° 293° (WNW) 1,717 4.5 -7.0°
Drops below altitude 10° 18:40:36 10° 348° (NNW) 2,537 5.9 -6.3°
Sets 18:43:20 0° 0° (N) 3,430 6.7 -5.9°
